FLOCK 4S-5 (47515 NORAD) Tracking and Keplerian Element Data

This shows tracking and keplerian element data for the satellite.

Feedback or suggestion? Click here.




ElementValue
Catalog47515
NameFLOCK 4S-5
Epoch Orbit1198
Epoch Day101.90416663
Epoch Year2021
RAAN164.1624
Inclination97.4917
Eccentricity0.0008504
Argument of Perigee352.3475
Mean Anonmoly7.7625
Mean Motion15.12036147
Decay Rate1.912E-05
L11 47515U 21006DF 21101.90416663 .00001912 00000-0 11491-3 0 9993
L22 47515 97.4917 164.1624 0008504 352.3475 7.7625 15.12036147 11987

Live tracking and technical data element details for FLOCK 4S-5 (NORAD 47515). FLOCK 4S-5 can be tracked NOW for your location showing map with azimuth and elevation plus other details from your city location.

Track the satellite on the map from your city or location and see movement details for azimuth, elevation, latitude, longitude, range, height, and movement on the map or in text.







IsCatalogInMostPopularTable: catalog: 47515, numindb: 16
Update: records affected: 1



GetName: 47515 FLOCK 4S-5

Hit Count: updated at: Tue, 13 Apr 2021 04:27:43 GMT